Tracking 28081 objects as of 26-Sep-2023
HD Live streaming from Space Station
objects crossing your sky now

STARLINK-2603

Track STARLINK-2603 now!
10-day predictions
STARLINK-2603 is classified as:


NORAD ID: 48375
Int'l Code: 2021-038Y
Perigee: 553.5 km
Apogee: 555.2 km
Inclination: 53.1 °
Period: 95.6 minutes
Semi major axis: 6925 km
RCS: Unknown
Launch date: May 4, 2021
Source: United States (US)
Launch site: AIR FORCE EASTERN TEST RANGE (AFETR)
Your satellite tracking list
Your tracking list is empty




NASA's NSSDC Master Catalog

Two Line Element Set (TLE):
1 48375U 21038Y   23268.73189250  .00032935  00000-0  22197-2 0  9992
2 48375  53.0544  53.7302 0001203  70.5043 289.6076 15.06398565132715
Source of the keplerian elements: AFSPC